Home   Weather   Espoo   Past weeks

Flag for Finland Past Weather in Espoo, Finland — Yesterday and Last 2 Weeks

Now
34 °F

Partly sunny.


Feels Like: 24 °F
Forecast: 32 / 35 °F
Wind: 15 mph from Southwest

Location: Helsinki-Vantaa

Current Time: Dec 7, 2016 at 2:41:20 pm

Latest Report: Dec 7, 2016 at 2:20 pm


Visibility: N/A

Pressure: 29.89 "Hg

Humidity: 81%

Dew Point: 28 °F

Location of EspooLocation

Past Weather in Espoo — Graph

°F

Espoo Temperature Yesterday

Maximum temperature yesterday: 23 °F (at 12:20 am)
Minimum temperature yesterday: 9 °F (at 11:20 pm)
Average temperature yesterday: 16 °F

High & Low Weather Summary for the Past Weeks

 TemperatureHumidityPressure
High43 °F (Nov 24, 12:50 am)100% (Nov 22, 2:20 pm)30.33 "Hg (Nov 22, 2:20 pm)
Low9 °F (Dec 6, 11:20 pm)64% (Dec 5, 7:50 pm)29.03 "Hg (Nov 26, 7:50 pm)
Average29 °F86%29.74 "Hg
* Reported Nov 22 1:20 pm — Dec 7 1:20 pm, Espoo, Weather by CustomWeather, © 2016

Note: Actual official high and low records may vary slightly from our data, if they occured in-between our weather recording intervals... More about our weather records

Advertising

Espoo Weather History for the Previous 24 Hours

Scroll right to see more
 ConditionsComfort  
Time TempWeatherWind HumidityBarometerVisibility
1:20 pm
Wed, Dec 7
34 °FBroken clouds.14 mph81%29.92 "HgN/A
12:50 pm34 °FBroken clouds.16 mph81%29.95 "HgN/A
12:20 pm34 °FBroken clouds.14 mph81%29.95 "HgN/A
11:50 am34 °FBroken clouds.15 mph81%29.95 "HgN/A
11:20 am34 °FPartly sunny.13 mph81%29.95 "HgN/A
10:50 am34 °FPartly sunny.13 mph81%29.98 "HgN/A
10:20 am32 °FSunny.14 mph87%29.98 "Hg10 mi
9:50 am32 °FSunny.15 mph87%30.01 "Hg10 mi
9:20 am32 °FSunny.14 mph87%30.04 "Hg10 mi
8:50 am32 °FClear.14 mph87%30.04 "Hg10 mi
8:20 am30 °FClear.14 mph93%30.04 "Hg10 mi
7:50 am30 °FClear.13 mph86%30.07 "Hg10 mi
7:20 am30 °FClear.16 mph86%30.09 "Hg10 mi
6:50 am30 °FClear.15 mph86%30.09 "Hg10 mi
6:20 am28 °FClear.13 mph93%30.12 "Hg10 mi
5:50 am27 °FPassing clouds.12 mph86%30.12 "HgN/A
5:20 am23 °FPartly cloudy.8 mph93%30.15 "HgN/A
4:50 am23 °FPassing clouds.8 mph86%30.18 "HgN/A
4:20 am21 °FPassing clouds.7 mph86%30.18 "HgN/A
3:50 am19 °FPassing clouds.6 mph86%30.21 "HgN/A
3:20 am18 °FPassing clouds.7 mph86%30.24 "HgN/A
2:50 am16 °FPassing clouds.7 mph86%30.24 "HgN/A
2:20 am14 °FClear.7 mph85%30.27 "Hg10 mi
1:50 am12 °FClear.6 mph85%30.27 "Hg10 mi
1:20 am10 °FClear.6 mph92%30.27 "Hg10 mi
12:50 am10 °FClear.5 mph92%30.30 "Hg10 mi
12:20 am9 °FClear.6 mph92%30.30 "Hg10 mi
11:50 pm
Tue, Dec 6
9 °FClear.6 mph92%30.33 "Hg10 mi
11:20 pm9 °FClear.5 mph92%30.33 "Hg10 mi
10:50 pm10 °FClear.3 mph85%30.33 "Hg10 mi
10:20 pm10 °FClear.1 mph92%30.33 "Hg10 mi
9:50 pm10 °FClear.3 mph92%30.33 "Hg10 mi
9:20 pm10 °FClear.7 mph92%30.33 "Hg10 mi
8:50 pm12 °FClear.7 mph85%30.33 "Hg10 mi
7:50 pm12 °FClear.7 mph92%30.33 "Hg10 mi
7:20 pm12 °FClear.5 mph92%30.33 "Hg10 mi
6:50 pm14 °FClear.5 mph85%30.33 "Hg10 mi
6:20 pm14 °FClear.6 mph85%30.33 "Hg10 mi
5:50 pm14 °FPassing clouds.6 mph85%30.33 "HgN/A
5:20 pm14 °FClear.6 mph85%30.30 "Hg10 mi
4:50 pm16 °FClear.7 mph79%30.30 "Hg10 mi
4:20 pm16 °FClear.7 mph86%30.30 "Hg10 mi
3:50 pm16 °FClear.7 mph86%30.27 "Hg10 mi
3:20 pm18 °FClear.7 mph79%30.27 "Hg10 mi
2:50 pm18 °FSunny.5 mph79%30.27 "Hg10 mi
2:20 pm19 °FSunny.7 mph79%30.27 "Hg10 mi
Weather by CustomWeather, © 2016

See weather overviewHow to use our weather pages